THOR ABLESTAR DEB, 246

Orbit data source: Space-Track

THOR ABLESTAR DEB, 246 is space debris in LEO originally from a launch on Thu, 29 Jun 1961 UTC launched from the Air Force Eastern Test Range (AFETR). Debris objects in space refer to the collection of defunct objects orbiting the Earth. Examples of debris include non-operational satellites, rocket bodies, and fragments generated from explosions, collisions, or faulty payload assembly.

Loading next visibility...
Identifier
246, 1961-015CB
Orbit
LEO
Country
Flag of USUS
Related business
Manufacturer
Unknown
Mission
Spacecraft
Bus & Motor
Unknown
Mass
Unknown
Launch date (UTC)
1961-06-29 (65 years ago)
Launch vehicle
Unknown
Launch site
Air Force Eastern Test Range (AFETR)
Object type
Payload
Rocket body
Debris
Shape & HBR
Unknown shape, 0.2 m
Radar Cross Section
Medium (>0.1 m² and <1 m²)

Expand to show TLE details & history
Last TLE update: 2 days ago

TLE from 2 days ago
0 THOR ABLESTAR DEB
1 00246U 61015CB  26134.62177399 -.00000035  00000-0  34472-4 0  9998
2 00246  66.8693 273.0127 0063171 162.4515 197.8765 13.86155472619210
Epoch: 2026-05-14T14:55Z
TLE epoch observation values (Epoch: 2026-05-14T14:55:21.272Z)
Latitude
-0.00004°
Longitude
176.80924°
Altitude
988.254 km
Speed
7.336 km/s
True Right ascension
18h 12m 03s
True Declination
0° 00' 00"
Sunlit
Object was in full shadow at epoch
Visualization orbit readout
Latitude
Unknown
Longitude
Unknown
Altitude
Unknown
Speed
Unknown
Apparent Right ascension
Unknown
Apparent Declination
Unknown
Sunlit
N/A
Visualization observer readout
Local Sidereal Time
19:33:45
Azimuth
Unknown
Elevation
Unknown
Doppler factor
Unknown
Orbital elements
Apogee altitude
986.757 km
Perigee altitude
894.291 km
Semi-major axis
7,318.661 km
Eccentricity
0.00632
Inclination
66.8693°
RAAN
273.0127°
Arg. of periapsis
162.4515°
True anomaly
197.65595°
Mean anomaly
197.8765°
Eccentric anomaly
197.76606°
Mean motion
3.46654 °/min
Orbital period
103.85 mins
BSTAR
0.000034472

Documentation

Showing up to 5 results
|